ROMMA est une association bénévole à but non lucratif. Votre soutien est indispensable : ADHERER à ROMMA ou FAIRE un DON

Crêts du Salève - (74, Haute-Savoie)

Salève (1270 m)   Longitude: 6° 10' 28'' E   Latitude: 46° 7' 42'' N Station romma n°73
 

Détail journalier du     <<     >>

Température Precipitation Humidité Vent Dir Rafale Dir. rafale Ensol.
Heure (°C) (mm) (%) (km/h) (km/h) (min)
01:00 8.201003OSO11OSO0
02:00 8.101007OSO13OSO0
03:00 8.101006S15S0
04:00 8.101007SSE15SSE0
05:00 8.10.21003SSE6SSE0
06:00 8.101002SSE10SSE0
07:00 8.00.21006SSE16SSE0
08:00 8.00.21006SSE13SSE0
09:00 7.901005SSE13SSE0
10:00 9.301003SSE13SSE60
11:00 9.201008SSE15SSE60
12:00 11.30886SSE15SSE60
13:00 11.60768SSE15SSE60
14:00 11.407511SO16SSE60
15:00 11.207912SO15SO60
16:00 10.807912SO16SO60
17:00 10.408813SO19SO60
18:00 9.908711OSO19SO0
19:00 9.608913OSO16OSO0
20:00 10.307911OSO16OSO0
21:00 9.90823OSO10OSO0
22:00 9.80834OSO10OSO0
23:00 9.80816OSO13OSO0
minuit 9.60817OSO18OSO0

Graphique du 30-10-2019

 

Serveur OMMA